Tracking 35048 objects as of 19-Aug-2026
HD Live streaming from Space Station
objects crossing your sky now

FREGAT DEB


10-day predictions


NORAD ID: 46521
Int'l Code: 2011-037LZ
Launch date: July 18, 2011
Source: Commonwealth of Independent States (former USSR) (CIS)
Launch site: TYURATAM MISSILE AND SPACE COMPLEX (TTMTR)

Note: This is SATELLITE DEBRIS
Your satellite tracking list
Your tracking list is empty




NASA's NSSDC Master Catalog

Two Line Element Set (TLE):
1 46521U 11037LZ  22053.98763944  .00140704  00000-0  13029+0 0  9992
2 46521  51.3014 270.8473 2060534 198.7207 152.5323 10.55425472 51540
Source of the keplerian elements: AFSPC